Richmond, VA

4:32 PM EST on December 06, 2019 (GMT -0500)
Richmond International

Weather History for KRIC - November, 2019

Change the Weather History Date:

Tuesday, November 12, 2019

  Actual Average Record
Temperature  
Mean Temperature 42 °F 52 °F  
Max Temperature 57 °F 63 °F 79 °F (1931)
Min Temperature 28 °F 40 °F 20 °F (1987)
Degree Days  
Heating Degree Days 22 14  
Month to date heating degree days 200 144  
Since 1 July heating degree days 310 377  
Cooling Degree Days 0 0  
Month to date cooling degree days 0 0  
Year to date cooling degree days 2051 1543  
Moisture  
Dew Point 35 °F    
Average Humidity 80    
Maximum Humidity 93    
Minimum Humidity 51    
Precipitation  
Precipitation 0.76 in 0.10 in 3.51 in (2009)
Month to date precipitation 0.80 1.29  
Year to date precipitation 38.61 38.39  
Snow  
Snow 0.90 in 0.00 in 1.20 in (1968)
Month to date snowfall 0.9 0.0  
Since 1 July snowfall 0.9 0.0  
Snow Depth 1.0 in    
Sea Level Pressure  
Sea Level Pressure 30.01 in    
Wind  
Wind Speed 11 mph ()    
Max Wind Speed 30 mph    
Max Gust Speed 39 mph    
Visibility 7.0 miles    
Events Rain , Snow    
T = Trace of Precipitation, MM = Missing Value Source: Averaged Metar Reports

Daily Weather History Graph

Daily Weather History Graph

Search for Another Location

Airport or City:

Astronomy

Nov. 12, 2019 Rise Set
Actual Time 6:45 AM EST 5:00 PM EST
Civil Twilight 6:17 AM EST 5:28 PM EST
Nautical Twilight 5:46 AM EST 5:59 PM EST
Astronomical Twilight 5:15 AM EST 6:30 PM EST
Moon 5:26 PM EST (11/12) 6:35 AM EST (11/12)
Length of Visible Light 11h 10m
Length of Day
10h 15m
Full, 100% of the Moon is Illuminated
Nov 12
Full
Nov 19
Last Quarter
Nov 26
New
Dec 4
First Quarter
Dec 12
Full

Hourly Weather History & Observations

Time (EST) Temp. Windchill Dew Point Humidity Pressure Visibility Wind Dir Wind Speed Gust Speed Precip Events Conditions
12:54 AM 55.9 °F - 37.9 °F 51% 29.88 in 10.0 mi SSW 15.0 mph - N/A   Overcast
1:54 AM 57.0 °F - 39.0 °F 51% 29.88 in 10.0 mi SSW 17.3 mph - N/A   Overcast
2:54 AM 57.0 °F - 39.9 °F 53% 29.86 in 10.0 mi SSW 11.5 mph - N/A   Overcast
3:54 AM 55.9 °F - 39.9 °F 55% 29.86 in 10.0 mi SSW 12.7 mph - N/A   Overcast
4:54 AM 55.0 °F - 42.1 °F 62% 29.85 in 10.0 mi SSW 9.2 mph - N/A   Overcast
5:54 AM 55.9 °F - 42.1 °F 60% 29.85 in 10.0 mi SSW 9.2 mph - N/A   Overcast
6:54 AM 54.0 °F - 43.0 °F 66% 29.86 in 10.0 mi SSW 6.9 mph - 0.00 in   Overcast
7:54 AM 53.1 °F - 46.9 °F 80% 29.87 in 10.0 mi SSW 5.8 mph - 0.01 in Rain Light Rain
8:54 AM 52.0 °F - 48.0 °F 86% 29.91 in 6.0 mi WSW 6.9 mph - 0.04 in Rain Light Rain
9:25 AM 52.0 °F - 48.9 °F 89% 29.91 in 6.0 mi WNW 12.7 mph - 0.05 in Rain Light Rain
9:45 AM 51.1 °F - 48.0 °F 89% 29.93 in 6.0 mi NW 26.5 mph 35.7 mph 0.09 in Rain Light Rain
9:54 AM 46.9 °F - 45.0 °F 93% 29.96 in 6.0 mi North 19.6 mph 39.1 mph 0.12 in Rain Light Rain
10:21 AM 44.1 °F 36.5 °F 41.0 °F 89% 29.96 in 7.0 mi North 17.3 mph 26.5 mph 0.08 in Rain Light Rain
10:37 AM 43.0 °F 34.5 °F 39.9 °F 89% 29.96 in 5.0 mi North 19.6 mph - 0.11 in Rain Light Rain
10:54 AM 42.1 °F 33.9 °F 37.9 °F 85% 29.98 in 5.0 mi NNW 17.3 mph 26.5 mph 0.14 in Rain Light Rain
11:42 AM 37.9 °F 28.5 °F 35.1 °F 89% 29.99 in 4.0 mi North 17.3 mph 23.0 mph 0.10 in Rain Rain
11:54 AM 35.1 °F 25.2 °F 32.0 °F 89% 30.02 in 2.5 mi North 16.1 mph 26.5 mph 0.17 in Rain , Snow Light Rain
12:12 PM 34.0 °F 25.5 °F 30.9 °F 89% 30.00 in 1.5 mi North 11.5 mph - 0.06 in Snow Light Snow
12:24 PM 33.1 °F 23.0 °F 30.9 °F 92% 30.01 in 1.0 mi North 15.0 mph 23.0 mph 0.08 in Snow Light Snow
12:47 PM 33.8 °F 25.8 °F 30.2 °F 87% 30.01 in 0.2 mi North 10.4 mph - N/A Snow Heavy Snow
12:54 PM 33.1 °F 25.5 °F 30.9 °F 92% 30.04 in 0.2 mi North 9.2 mph - 0.17 in Snow Heavy Snow
1:54 PM 33.1 °F 26.1 °F 30.9 °F 92% 30.04 in 1.2 mi North 8.1 mph - 0.06 in Snow Light Snow
2:19 PM 33.1 °F 26.9 °F 30.9 °F 92% 30.01 in 0.8 mi North 6.9 mph - 0.02 in Snow Light Snow
2:46 PM 33.1 °F 28.7 °F 30.9 °F 92% 30.01 in 7.0 mi ENE 4.6 mph - 0.05 in   Mostly Cloudy
2:54 PM 33.1 °F 28.7 °F 30.9 °F 92% 30.04 in 10.0 mi ENE 4.6 mph - 0.05 in   Mostly Cloudy
3:54 PM 34.0 °F - 30.9 °F 89% 30.06 in 10.0 mi Calm Calm - N/A   Mostly Cloudy
4:54 PM 34.0 °F - 30.9 °F 89% 30.08 in 10.0 mi Calm Calm - N/A   Mostly Cloudy
5:54 PM 34.0 °F 31.0 °F 30.9 °F 89% 30.11 in 10.0 mi NW 3.5 mph - N/A   Mostly Cloudy
6:54 PM 34.0 °F 26.0 °F 30.0 °F 85% 30.15 in 10.0 mi NNW 10.4 mph - N/A   Partly Cloudy
7:54 PM 32.0 °F 23.6 °F 26.1 °F 79% 30.19 in 10.0 mi North 10.4 mph - N/A   Partly Cloudy
8:54 PM 30.9 °F 22.2 °F 23.0 °F 72% 30.22 in 10.0 mi North 10.4 mph - N/A   Partly Cloudy
9:54 PM 30.0 °F 19.5 °F 19.9 °F 66% 30.26 in 10.0 mi NNW 13.8 mph - N/A   Clear
10:54 PM 28.9 °F 18.2 °F 19.0 °F 67% 30.28 in 10.0 mi NNW 13.8 mph - N/A   Clear
11:54 PM 28.0 °F 18.6 °F 19.0 °F 69% 30.29 in 10.0 mi North 10.4 mph - N/A   Clear